User: anonymous   Login
Location: Mladá Boleslav
(50.4134°N, 14.9084°E)
Time: 20:24:55
(UTC+02:00)
Language:

Hubble Space Telescope - Orbit

View from above orbital plane
View from above orbital plane
View from above satellite
View from above satellite

Ground track
Ground track

The orbit data is extracted from the following two-line orbital elements,

1 20580U 90037B   24113.01568836  .00012949  00000-0  62988-3 0  9993
2 20580  28.4699   1.2484 0002471 133.6675 226.4122 15.16877151668752
Epoch (UTC): 22 April 2024 00:22:35
Eccentricity: 0.0002471
inclination: 28.4699°
perigee height: 513 km
apogee height: 517 km
right ascension of ascending node: 1.2484°
argument of perigee: 133.6675°
revolutions per day: 15.16877151
mean anomaly at epoch: 226.4122°
orbit number at epoch: 66875

The dashed part of the orbit path shows where the satellite is in the earth's shadow,  

DLR